Date,TemperatureHighF,TemperatureAvgF,TemperatureLowF,DewpointHighF,DewpointAvgF,DewpointLowF,HumidityHigh,HumidityAvg,HumidityLow,PressureMaxIn,PressureMinIn,WindSpeedMaxMPH,WindSpeedAvgMPH,GustSpeedMaxMPH,PrecipitationSumIn
2013-1-1,17,7,0,6,1,-11,83,78,61,0.00,40.00,3,0,8,0.00
2013-1-2,22,1,-14,6,-7,-21,80,71,50,0.00,40.00,2,0,6,0.03
2013-1-3,31,-1,-16,10,-9,-23,80,68,33,0.00,40.00,3,2,9,0.08
2013-1-4,32,0,-13,8,-9,-19,81,68,31,0.00,40.00,3,2,6,0.11
2013-1-5,32,-1,-16,5,-10,-23,81,67,28,0.00,40.00,3,1,6,0.07
2013-1-6,32,14,-4,18,6,-9,88,72,47,0.00,40.00,3,1,8,0.01
2013-1-7,20,11,-2,16,7,-7,91,83,71,0.00,40.00,3,1,5,0.00
2013-1-8,25,21,18,23,19,16,95,93,91,0.00,40.00,3,1,8,0.00
2013-1-9,41,30,25,33,28,24,98,92,71,0.00,40.00,2,1,8,0.58
2013-1-10,36,25,14,30,22,10,97,90,65,0.00,40.00,5,2,15,0.03
2013-1-11,13,7,-2,10,2,-13,87,79,70,0.00,40.00,3,1,10,0.00
2013-1-12,13,-5,-22,0,-12,-30,76,70,51,0.00,40.00,3,0,8,0.00
2013-1-13,12,-8,-31,0,-21,-100,76,67,46,0.00,40.00,2,0,7,0.00
2013-1-14,3,-9,-27,-8,-17,-36,76,69,58,0.00,40.00,3,1,7,0.00
2013-1-15,9,2,-8,3,-4,-14,83,76,68,0.00,40.00,1,0,4,0.00
2013-1-16,19,10,-2,9,4,-10,85,79,64,0.00,40.00,2,0,7,0.00
2013-1-17,34,4,-14,19,-2,-21,88,74,48,0.00,40.00,3,1,7,0.22
2013-1-18,32,7,-10,15,-1,-16,86,72,44,0.00,40.00,4,1,9,0.19
2013-1-19,36,10,-14,15,1,-21,87,69,40,0.00,40.00,3,1,8,0.17
2013-1-20,34,11,-6,13,2,-12,85,70,40,0.00,40.00,4,1,8,0.01
2013-1-21,34,9,-10,11,-2,-16,84,67,35,0.00,40.00,4,1,11,0.00
2013-1-22,43,11,-11,13,1,-17,84,66,25,0.00,40.00,3,1,8,0.00
2013-1-23,44,20,4,17,9,0,85,66,25,0.00,40.00,3,1,7,0.00
2013-1-24,31,26,20,29,23,15,98,89,78,0.00,40.00,3,1,8,0.00
2013-1-25,38,32,28,33,30,28,99,94,80,0.00,40.00,1,0,3,0.37
2013-1-26,37,33,31,35,32,31,100,97,90,0.00,40.00,1,0,4,0.42
2013-1-27,32,27,20,32,25,17,100,95,87,0.00,40.00,3,2,12,0.01
2013-1-28,20,16,12,17,13,9,92,88,81,0.00,40.00,3,2,10,0.00
2013-1-29,27,16,12,18,12,9,92,86,69,0.00,40.00,3,1,7,0.06
2013-1-30,26,19,13,25,17,10,97,92,88,0.00,40.00,4,2,14,0.01
2013-1-31,28,26,23,27,25,22,97,96,94,0.00,40.00,4,2,10,0.00
2013-2-1,27,26,25,27,25,24,98,96,93,0.00,40.00,4,2,9,0.00
2013-2-2,33,25,10,28,23,3,97,93,80,0.00,40.00,3,1,6,0.16
2013-2-3,37,20,2,27,15,-2,94,83,66,0.00,40.00,3,1,8,0.33
2013-2-4,26,23,20,24,22,19,96,94,89,0.00,40.00,3,1,8,0.03
2013-2-5,44,29,23,32,26,21,99,89,62,0.00,40.00,2,0,6,0.19
2013-2-6,26,22,17,24,21,15,96,94,92,0.00,40.00,3,1,8,0.01
2013-2-7,37,22,11,20,16,8,94,77,39,0.00,40.00,4,1,12,0.03
2013-2-8,45,28,15,21,15,8,88,60,34,0.00,40.00,5,3,14,0.01
2013-2-9,41,27,22,18,13,10,80,55,29,0.00,40.00,5,3,15,0.00
2013-2-10,29,19,-4,12,3,-11,76,52,31,0.00,40.00,6,3,16,0.00
2013-2-11,27,1,-19,2,-10,-27,77,61,28,0.00,40.00,4,2,10,0.00
2013-2-12,21,15,7,15,10,0,89,80,73,0.00,40.00,3,1,8,0.00
2013-2-13,25,22,17,24,20,14,96,94,89,0.00,40.00,4,2,13,0.00
2013-2-14,27,24,21,23,21,19,96,90,75,0.00,40.00,4,2,10,0.11
2013-2-15,34,23,15,22,19,13,96,87,62,0.00,40.00,4,2,11,0.05
2013-2-16,39,25,16,24,20,13,92,81,52,0.00,40.00,4,1,11,0.06
2013-2-17,29,22,7,22,17,4,94,83,66,0.00,40.00,4,2,10,0.09
2013-2-18,31,16,0,14,6,-6,89,69,34,0.00,40.00,4,1,10,0.08
2013-2-19,35,21,-2,24,12,-6,94,70,37,0.00,40.00,5,2,14,0.01
2013-2-20,40,22,8,24,16,4,93,78,35,0.00,40.00,4,2,11,0.01
2013-2-21,23,18,10,19,14,7,93,85,71,0.00,40.00,4,1,8,0.03
2013-2-22,22,18,14,19,15,11,91,88,80,0.00,40.00,5,1,10,0.02
2013-2-23,27,20,10,23,17,0,93,88,80,0.00,40.00,3,1,10,0.00
2013-2-24,34,11,-13,17,2,-19,83,68,40,0.00,40.00,4,2,10,0.30
2013-2-25,26,15,-6,17,10,-11,90,79,60,0.00,40.00,3,1,8,0.01
2013-2-26,29,16,10,18,11,7,90,82,62,0.00,40.00,5,1,10,0.15
2013-2-27,24,16,11,14,11,8,90,81,60,0.00,40.00,4,1,11,0.01
2013-2-28,28,20,13,20,16,10,93,84,71,0.00,40.00,3,1,8,0.10
2013-3-1,30,26,20,28,25,18,98,94,89,0.00,40.00,2,1,6,0.03
2013-3-2,44,33,29,34,31,29,99,91,63,0.00,40.00,3,0,8,0.18
2013-3-3,32,29,18,32,28,10,100,96,78,0.00,40.00,8,3,19,0.02
2013-3-4,28,11,-5,11,2,-13,87,70,35,0.00,40.00,4,1,10,0.15
2013-3-5,41,15,-13,19,3,-20,83,63,30,0.00,40.00,3,2,10,0.17
2013-3-6,36,27,11,33,22,7,98,82,53,0.00,40.00,5,2,14,0.13
2013-3-7,42,27,13,25,20,10,94,76,43,0.00,40.00,3,1,8,0.33
2013-3-8,42,31,18,32,26,16,97,83,63,0.00,40.00,3,1,8,0.08
2013-3-9,44,28,13,22,14,7,95,60,25,0.00,40.00,5,2,16,0.01
2013-3-10,40,22,1,22,13,-3,86,70,42,0.00,40.00,4,1,11,0.00
2013-3-11,40,30,18,26,20,13,85,67,35,0.00,40.00,6,2,17,0.01
2013-3-12,40,24,5,28,15,1,88,70,35,0.00,40.00,4,1,11,0.01
2013-3-13,50,38,31,31,29,28,90,71,44,0.00,40.00,5,1,12,0.00
2013-3-14,57,36,22,29,26,21,96,72,32,0.00,40.00,5,1,13,0.00
2013-3-15,49,38,30,29,28,25,89,68,39,0.00,40.00,4,1,12,0.00
2013-3-16,46,35,26,30,25,19,96,69,37,0.00,40.00,6,2,15,0.00
2013-3-17,33,26,9,31,17,4,99,73,36,0.00,40.00,7,5,19,0.08
2013-3-18,35,20,2,20,10,-2,84,67,42,0.00,40.00,7,3,15,0.20
2013-3-19,40,22,-4,8,1,-10,83,46,14,0.00,40.00,5,2,12,0.01
2013-3-20,37,27,8,34,20,-2,98,77,45,0.00,40.00,4,1,9,0.34
2013-3-21,38,28,20,32,24,17,99,85,52,0.00,40.00,5,3,16,0.55
2013-3-22,32,19,9,17,12,1,91,75,43,0.00,40.00,5,1,10,0.38
2013-3-23,34,11,-6,13,3,-12,90,72,34,0.00,40.00,5,2,12,0.12
2013-3-24,34,14,-7,10,2,-13,86,63,32,0.00,40.00,5,2,11,0.02
2013-3-25,38,11,-13,9,-4,-20,80,57,24,0.00,40.00,4,2,11,0.02
2013-3-26,47,26,4,27,16,-1,88,68,40,0.00,40.00,5,2,11,0.00
2013-3-27,48,34,26,28,25,23,90,73,41,0.00,40.00,5,1,14,0.00
2013-3-28,58,45,26,24,21,16,79,42,27,0.00,40.00,4,2,12,0.00
2013-3-29,53,36,23,36,27,19,98,72,38,0.00,40.00,5,2,12,0.02
2013-3-30,54,38,25,32,27,20,100,70,32,0.00,40.00,5,2,11,0.02
2013-3-31,56,34,17,26,19,11,91,62,18,0.00,40.00,5,2,12,0.01
2013-4-1,62,40,21,23,19,17,83,52,18,0.00,40.00,4,2,10,0.00
2013-4-2,60,41,26,30,24,18,98,59,24,0.00,40.00,4,2,10,0.00
2013-4-3,58,38,22,29,24,20,94,63,27,0.00,40.00,4,1,11,0.00
2013-4-4,59,41,25,38,29,23,94,68,33,0.00,40.00,5,2,12,0.00
2013-4-5,46,38,33,39,35,32,99,90,62,0.00,40.00,7,2,23,0.48
2013-4-6,41,34,31,37,33,31,99,96,85,0.00,40.00,3,0,8,0.48
2013-4-7,43,35,31,37,32,28,99,89,65,0.00,40.00,6,2,18,0.53
2013-4-8,39,31,23,30,23,7,98,74,50,0.00,40.00,8,4,24,0.07
2013-4-9,42,29,19,17,10,5,69,48,28,0.00,40.00,6,5,21,0.00
2013-4-10,45,31,10,31,14,3,92,51,29,0.00,40.00,5,2,11,0.00
2013-4-11,50,37,26,32,25,10,98,70,21,0.00,40.00,5,2,13,0.03
2013-4-12,48,34,16,28,18,10,97,60,22,0.00,40.00,5,2,11,0.01
2013-4-13,40,32,25,35,26,8,98,80,43,0.00,40.00,8,3,23,0.50
2013-4-14,38,25,13,12,10,7,89,56,27,0.00,40.00,6,2,16,0.13
2013-4-15,44,26,13,24,15,10,88,66,27,0.00,40.00,5,3,15,0.13
2013-4-16,36,25,17,10,6,3,61,46,33,0.00,40.00,6,4,16,0.01
2013-4-17,38,23,10,4,2,-1,60,42,22,0.00,40.00,7,4,17,0.01
2013-4-18,42,24,-1,15,7,-6,81,51,27,0.00,40.00,5,2,14,0.00
2013-4-19,37,31,21,33,24,15,99,78,48,0.00,40.00,4,1,11,0.11
2013-4-20,47,35,28,37,33,27,100,93,62,0.00,40.00,4,2,12,0.58
2013-4-21,49,35,24,33,26,22,98,74,37,0.00,40.00,6,2,21,0.02
2013-4-22,39,30,22,26,16,6,93,60,34,0.00,40.00,7,4,21,0.03
2013-4-23,41,26,9,16,6,-3,74,45,19,0.00,40.00,4,2,11,0.02
2013-4-24,48,33,12,21,14,9,91,54,24,0.00,40.00,5,2,13,0.00
2013-4-25,55,39,15,20,14,8,88,44,15,0.00,40.00,6,2,18,0.00
2013-4-26,60,41,19,23,17,14,86,48,16,0.00,40.00,5,2,11,0.00
2013-4-27,64,45,23,27,22,18,89,49,18,0.00,40.00,5,2,21,0.00
2013-4-28,57,46,32,36,28,22,91,53,30,0.00,40.00,6,2,16,0.01
2013-4-29,51,39,25,30,26,23,96,63,39,0.00,40.00,11,5,28,0.01
2013-4-30,41,36,26,23,11,7,88,37,28,0.00,40.00,4,3,11,0.00
2013-5-1,42,32,23,17,12,-1,64,45,17,0.00,40.00,5,3,21,0.00
2013-5-2,52,34,14,18,10,6,84,46,17,0.00,40.00,4,2,11,0.00
2013-5-3,59,41,22,25,18,13,81,47,17,0.00,40.00,3,2,10,0.00
2013-5-4,54,45,37,31,29,24,72,55,36,0.00,40.00,6,4,15,0.00
2013-5-5,63,46,38,40,29,26,95,55,26,0.00,40.00,6,4,16,0.04
2013-5-6,66,50,34,34,29,20,85,51,18,0.00,40.00,5,3,14,0.04
2013-5-7,67,45,27,40,30,19,97,67,16,0.00,40.00,6,2,17,0.00
2013-5-8,66,49,31,34,29,19,98,56,17,0.00,40.00,5,2,15,0.00
2013-5-9,67,48,29,36,31,25,97,61,20,0.00,40.00,8,2,21,0.00
2013-5-10,69,51,31,36,27,-100,97,53,18,0.00,40.00,5,2,16,0.00
2013-5-11,69,51,31,41,31,27,93,57,22,0.00,40.00,4,2,14,0.00
2013-5-12,74,55,34,44,36,32,97,58,22,0.00,40.00,5,2,13,0.00
2013-5-13,78,60,37,42,35,29,95,49,18,0.00,40.00,8,3,23,0.00
2013-5-14,72,59,34,39,34,30,97,45,22,0.00,40.00,7,4,19,0.00
2013-5-15,72,56,31,37,33,30,98,51,22,0.00,40.00,6,3,22,0.00
2013-5-16,64,49,42,45,26,-100,97,66,34,0.00,40.00,8,2,18,0.17
2013-5-17,49,44,41,47,39,-100,99,95,85,0.00,40.00,3,1,7,0.40
2013-5-18,44,41,39,41,40,39,100,97,89,0.00,40.00,3,1,8,0.61
2013-5-19,47,42,38,42,39,37,99,90,77,0.00,40.00,4,1,10,0.31
2013-5-20,58,46,32,41,37,32,99,73,42,0.00,40.00,6,2,12,0.01
2013-5-21,60,47,29,45,35,29,98,69,39,0.00,40.00,4,2,11,0.01
2013-5-22,66,51,38,41,35,25,95,57,33,0.00,40.00,5,3,13,0.01
2013-5-23,59,45,34,37,32,28,91,62,36,0.00,40.00,6,2,13,0.00
2013-5-24,60,45,29,34,26,19,97,58,21,0.00,40.00,7,3,23,0.09
2013-5-25,63,48,30,36,28,22,90,54,23,0.00,40.00,6,3,12,0.00
2013-5-26,68,49,32,41,32,29,91,59,25,0.00,40.00,6,2,17,0.02
2013-5-27,58,46,36,42,34,27,98,69,36,0.00,40.00,5,3,14,0.05
2013-5-28,56,44,38,42,39,34,97,82,51,0.00,40.00,5,2,13,0.15
2013-5-29,47,42,40,44,41,39,98,95,88,0.00,40.00,3,1,11,0.60
2013-5-30,51,42,38,40,38,34,99,85,58,0.00,40.00,6,2,17,0.50
2013-5-31,57,42,28,34,30,27,98,66,32,0.00,40.00,5,2,12,0.01
2013-6-1,63,47,28,39,29,21,96,59,21,0.00,40.00,4,2,10,0.00
2013-6-2,73,56,33,41,34,28,95,54,20,0.00,40.00,8,3,21,0.00
2013-6-3,55,45,30,41,33,28,94,64,43,0.00,40.00,6,2,16,0.00
2013-6-4,63,49,36,37,32,25,97,58,29,0.00,40.00,6,2,12,0.00
2013-6-5,69,51,28,40,33,27,96,57,29,0.00,40.00,5,2,12,0.00
2013-6-6,72,56,35,44,37,34,97,58,26,0.00,40.00,4,2,11,0.00
2013-6-7,75,58,39,45,41,37,95,61,29,0.00,40.00,5,2,16,0.00
2013-6-8,73,61,42,44,37,30,84,45,20,0.00,40.00,6,3,16,0.00
2013-6-9,78,62,35,45,39,34,97,49,24,0.00,40.00,7,3,18,0.00
2013-6-10,82,67,45,59,45,40,87,51,24,0.00,40.00,6,2,20,0.01
2013-6-11,73,60,39,44,41,37,94,54,28,0.00,40.00,7,4,21,0.01
2013-6-12,67,53,44,52,46,41,96,82,41,0.00,40.00,5,1,14,0.21
2013-6-13,69,55,42,53,44,30,96,70,36,0.00,40.00,6,3,17,0.09
2013-6-14,57,44,31,39,32,26,98,67,32,0.00,40.00,6,3,17,0.07
2013-6-15,70,50,28,36,27,12,96,54,11,0.00,40.00,6,2,12,0.00
2013-6-16,78,59,32,40,30,23,90,44,13,0.00,40.00,5,2,13,0.00
2013-6-17,79,60,39,42,35,26,87,50,14,0.00,40.00,5,2,12,0.00
2013-6-18,83,63,40,45,36,26,84,45,13,0.00,40.00,5,2,17,0.00
2013-6-19,68,55,36,40,37,33,96,55,34,0.00,40.00,6,3,17,0.03
2013-6-20,59,40,28,34,32,27,97,76,34,0.00,40.00,5,2,13,0.03
2013-6-22,61,53,40,38,35,32,89,53,36,0.00,40.00,6,3,15,0.00
2013-6-23,71,52,30,45,33,29,98,59,22,0.00,40.00,5,3,13,0.00
2013-6-24,74,56,39,50,41,34,95,62,31,0.00,40.00,4,3,13,0.12
2013-6-25,68,54,48,55,48,45,100,83,45,0.00,40.00,7,2,16,0.35
2013-6-26,74,60,50,54,50,44,100,74,37,0.00,40.00,6,2,18,0.14
2013-6-27,83,64,42,56,47,41,99,62,26,0.00,40.00,5,2,13,0.01
2013-6-28,88,66,44,55,46,38,95,60,18,0.00,40.00,4,2,9,0.00
2013-6-29,92,70,49,52,46,39,89,51,17,0.00,40.00,7,3,20,0.00
2013-6-30,86,71,52,55,50,47,87,50,29,0.00,40.00,4,2,14,0.04
2013-7-1,90,71,52,59,49,42,86,52,20,0.00,40.00,4,2,14,0.14
2013-7-2,92,70,50,61,49,42,89,55,18,0.00,40.00,4,2,11,0.57
2013-7-3,89,70,49,56,52,41,96,59,22,0.00,40.00,5,2,12,0.22
2013-7-4,85,70,49,56,52,48,95,56,30,0.00,40.00,6,2,19,0.10
2013-7-5,81,66,53,56,51,43,98,64,27,0.00,40.00,5,3,16,0.07
2013-7-6,78,54,42,51,46,41,98,78,32,0.00,40.00,6,2,22,0.21
2013-7-7,82,64,51,56,49,45,89,61,39,0.00,40.00,4,3,17,0.20
2013-7-8,81,66,53,55,47,36,77,55,24,0.00,40.00,6,3,19,0.01
2013-7-9,83,69,40,50,40,33,95,45,17,0.00,40.00,4,2,11,0.00
2013-7-10,89,68,42,52,38,-100,91,46,14,0.00,40.00,4,2,10,0.07
2013-7-11,79,61,45,53,46,39,95,64,24,0.00,40.00,6,2,15,0.01
2013-7-12,78,61,43,51,46,40,99,65,29,0.00,40.00,5,2,17,0.01
2013-7-13,80,65,41,51,46,39,94,55,29,0.00,40.00,5,2,12,0.01
2013-7-14,84,66,41,50,44,39,98,54,23,0.00,40.00,5,2,12,0.01
2013-7-15,87,68,40,49,41,30,96,50,13,0.00,40.00,5,2,12,0.00
2013-7-16,83,74,67,54,52,50,55,45,34,0.00,40.00,4,3,13,0.00
2013-7-17,85,69,55,58,55,50,98,67,33,0.00,40.00,4,2,11,0.05
2013-7-18,86,70,47,54,48,39,95,53,20,0.00,40.00,4,2,10,0.05
2013-7-19,88,67,44,50,41,28,87,51,12,0.00,40.00,5,2,12,0.03
2013-7-20,87,65,43,48,37,-100,83,47,16,0.00,40.00,4,2,12,0.02
2013-7-21,86,66,40,48,37,27,88,45,12,0.00,40.00,5,2,12,0.01
2013-7-22,87,66,37,42,31,16,87,41,7,0.00,40.00,5,3,13,0.01
2013-7-23,87,70,37,46,31,18,82,34,8,0.00,40.00,4,2,15,0.01
2013-7-24,85,67,46,53,39,35,78,44,17,0.00,40.00,4,2,9,0.00
2013-7-25,87,68,38,49,39,32,90,46,14,0.00,40.00,7,3,20,0.00
2013-7-26,87,68,43,47,41,35,87,47,16,0.00,40.00,4,2,12,0.00
2013-7-27,69,60,49,52,46,39,94,61,43,0.00,40.00,3,1,11,0.00
2013-7-28,77,56,40,50,44,39,98,71,33,0.00,40.00,7,2,15,0.00
2013-7-29,79,57,38,52,44,37,96,68,28,0.00,40.00,5,2,14,0.00
2013-7-30,81,63,44,50,45,35,94,58,19,0.00,40.00,6,3,17,0.00
2013-7-31,84,65,46,46,41,34,80,47,17,0.00,40.00,6,3,17,0.00
2013-8-1,86,70,55,53,44,33,89,45,17,0.00,40.00,6,4,16,0.00
2013-8-2,76,63,41,51,36,21,90,45,13,0.00,40.00,6,3,14,0.00
2013-8-3,80,62,35,39,32,24,88,43,14,0.00,40.00,5,2,13,0.02
2013-8-4,85,66,36,40,31,26,85,38,12,0.00,40.00,5,3,16,0.01
2013-8-5,87,63,36,43,32,21,85,43,9,0.00,40.00,6,2,16,0.00
2013-8-6,83,67,39,43,37,33,83,39,18,0.00,40.00,5,2,13,0.04
2013-8-7,85,66,39,42,32,17,81,38,9,0.00,40.00,5,2,14,0.03
2013-8-8,84,62,39,51,36,31,88,46,17,0.00,40.00,5,2,12,0.00
2013-8-9,82,65,53,50,43,30,74,50,16,0.00,40.00,5,2,14,0.00
2013-8-10,83,72,58,43,35,27,53,29,13,0.00,40.00,6,3,17,0.00
2013-8-11,84,72,55,41,33,26,49,26,13,0.00,40.00,5,3,19,0.00
2013-8-12,84,67,49,40,35,32,57,34,17,0.00,40.00,5,3,13,0.00
2013-8-13,84,58,38,41,35,-100,87,50,13,0.00,40.00,5,2,14,0.00
2013-8-14,85,64,45,41,34,-100,77,40,13,0.00,40.00,5,2,14,0.00
2013-8-15,88,57,39,43,20,-100,80,40,6,0.00,40.00,5,2,13,0.00
2013-8-16,91,62,39,37,24,-100,72,35,7,0.00,40.00,5,3,15,0.01
2013-8-17,89,65,40,38,28,-100,71,36,9,0.00,40.00,6,2,15,0.01
2013-8-18,87,68,48,44,36,31,74,38,14,0.00,40.00,5,2,15,0.01
2013-8-19,86,66,40,45,29,-100,86,39,10,0.00,40.00,5,2,13,0.01
2013-8-20,86,68,48,48,36,-100,79,40,12,0.00,40.00,5,2,12,0.01
2013-8-21,78,63,42,52,46,40,92,58,33,0.00,40.00,4,2,11,0.03
2013-8-22,83,69,55,50,47,44,78,49,26,0.00,40.00,5,2,17,0.01
2013-8-23,83,65,50,53,47,44,90,57,27,0.00,40.00,4,2,13,0.00
2013-8-24,79,60,51,51,46,-100,96,66,23,0.00,40.00,4,2,13,0.02
2013-8-25,81,63,44,50,46,40,95,59,24,0.00,40.00,5,2,11,0.02
2013-8-26,77,62,50,56,50,44,98,67,36,0.00,40.00,4,2,13,0.00
2013-8-27,78,56,45,50,47,44,95,76,32,0.00,40.00,3,1,8,0.00
2013-8-28,78,65,49,58,53,47,97,68,40,0.00,40.00,4,2,12,0.00
2013-8-29,82,62,43,52,47,42,99,66,29,0.00,40.00,5,2,13,0.00
2013-8-30,85,64,43,51,44,36,96,58,19,0.00,40.00,7,3,15,0.00
2013-8-31,83,62,36,40,31,-100,93,44,13,0.00,40.00,6,2,12,0.03
2013-9-1,87,60,38,41,32,26,80,45,12,0.00,40.00,4,2,13,0.01
2013-9-2,67,59,49,57,48,34,93,68,34,0.00,40.00,2,1,8,0.01
2013-9-3,82,64,49,57,51,45,98,71,31,0.00,40.00,4,2,16,0.00
2013-9-4,77,63,54,59,55,50,99,77,44,0.00,40.00,3,2,9,0.00
2013-9-5,82,62,46,56,50,45,98,70,32,0.00,40.00,4,2,12,0.00
2013-9-6,84,59,46,57,49,44,97,74,29,0.00,40.00,4,2,16,0.00
2013-9-7,76,59,49,54,49,-100,96,76,36,0.00,40.00,4,2,11,0.00
2013-9-8,72,55,45,51,48,43,99,82,42,0.00,40.00,5,2,14,0.00
2013-9-9,70,55,43,51,44,37,100,71,32,0.00,40.00,4,2,10,0.00
2013-9-10,78,58,39,46,40,35,90,56,23,0.00,40.00,4,2,11,0.00
2013-9-11,79,63,48,46,42,38,79,49,23,0.00,40.00,5,3,15,0.00
2013-9-12,70,60,53,49,45,39,87,59,47,0.00,40.00,6,4,15,0.00
2013-9-13,75,59,41,53,46,40,98,68,28,0.00,40.00,5,2,9,0.06
2013-9-14,68,54,42,53,45,-100,100,77,46,0.00,40.00,7,2,19,0.06
2013-9-15,71,58,50,51,48,45,87,69,47,0.00,40.00,4,2,13,0.01
2013-9-16,75,60,42,50,46,41,96,65,35,0.00,40.00,5,2,15,0.00
2013-9-17,68,52,48,55,48,43,98,88,40,0.00,40.00,4,2,22,0.00
2013-9-18,48,43,31,46,42,30,98,95,88,0.00,40.00,5,2,13,0.00
2013-9-19,58,40,28,40,31,27,99,77,36,0.00,40.00,4,1,8,0.00
2013-9-20,71,44,26,36,28,23,96,64,17,0.00,40.00,4,2,11,0.01
2013-9-21,71,49,31,39,30,-100,92,59,20,0.00,40.00,6,3,17,0.01
2013-9-22,58,49,38,40,37,32,94,65,42,0.00,40.00,5,2,11,0.01
2013-9-23,59,45,31,39,34,29,99,70,32,0.00,40.00,6,3,17,0.01
2013-9-24,62,46,28,39,34,27,96,66,32,0.00,40.00,6,2,18,0.01
2013-9-25,44,39,30,41,38,29,99,95,80,0.00,40.00,5,2,13,0.42
2013-9-26,43,36,28,35,31,28,99,85,64,0.00,40.00,5,2,15,0.01
2013-9-27,41,35,32,33,30,28,96,83,59,0.00,40.00,4,2,13,0.02
2013-9-28,43,37,32,40,33,-100,98,86,74,0.00,40.00,3,1,9,0.13
2013-9-29,49,43,36,42,36,28,98,78,44,0.00,40.00,7,3,19,0.34
2013-9-30,55,47,42,44,40,34,100,79,51,0.00,40.00,10,4,27,0.42
2013-10-1,53,47,40,37,35,31,80,64,51,0.00,40.00,5,2,13,0.00
2013-10-2,52,40,27,35,31,26,97,73,44,0.00,40.00,3,2,11,0.00
2013-10-3,39,34,29,34,31,24,99,90,81,0.00,40.00,6,2,16,0.46
2013-10-4,43,32,24,27,23,20,92,71,44,0.00,40.00,6,3,18,0.01
2013-10-5,45,29,16,26,20,13,93,73,42,0.00,40.00,5,2,10,0.01
2013-10-6,56,35,21,30,24,19,94,71,29,0.00,40.00,4,2,10,0.00
2013-10-7,62,40,25,31,27,23,94,66,27,0.00,40.00,4,2,10,0.00
2013-10-8,48,36,25,30,26,21,92,68,35,0.00,40.00,5,2,15,0.00
2013-10-9,57,38,19,38,28,17,93,70,38,0.00,40.00,5,2,14,0.00
2013-10-10,58,44,35,41,35,31,99,73,44,0.00,40.00,5,2,12,0.11
2013-10-11,46,36,25,37,29,22,98,77,40,0.00,40.00,4,2,10,0.09
2013-10-12,44,32,21,38,27,-100,95,87,54,0.00,40.00,4,2,8,0.05
2013-10-13,44,38,35,39,35,30,99,88,72,0.00,40.00,4,2,10,0.26
2013-10-14,41,35,30,32,27,21,97,75,54,0.00,40.00,5,3,13,0.07
2013-10-15,46,33,23,23,20,17,86,61,33,0.00,40.00,4,2,9,0.00
2013-10-16,42,28,16,28,21,13,92,76,52,0.00,40.00,5,2,13,0.00
2013-10-17,42,33,26,28,24,19,92,72,40,0.00,40.00,4,1,12,0.00
2013-10-18,45,29,15,22,18,12,92,67,35,0.00,40.00,5,2,11,0.00
2013-10-19,48,31,18,28,21,-100,93,72,44,0.00,40.00,5,2,13,0.00
2013-10-20,52,35,23,29,24,20,95,68,32,0.00,40.00,4,1,18,0.00
2013-10-21,53,33,19,28,23,17,94,70,37,0.00,40.00,4,2,10,0.00
2013-10-22,57,35,21,32,26,20,95,74,35,0.00,40.00,4,2,11,0.00
2013-10-23,62,36,22,31,25,21,95,70,25,0.00,40.00,3,2,9,0.00
2013-10-24,64,37,24,27,22,20,91,64,18,0.00,40.00,3,2,8,0.00
2013-10-25,62,37,22,27,23,20,91,64,24,0.00,40.00,4,2,8,0.00
2013-10-26,59,35,22,30,22,-100,94,68,27,0.00,40.00,5,2,10,0.00
2013-10-27,56,36,20,28,23,18,94,66,28,0.00,40.00,4,2,11,0.00
2013-10-28,49,41,32,33,25,-100,98,58,39,0.00,40.00,7,4,23,0.00
2013-10-29,36,32,28,33,30,26,100,92,84,0.00,40.00,3,1,10,0.23
2013-10-30,32,30,29,32,30,28,100,98,94,0.00,40.00,5,2,14,0.02
2013-10-31,32,30,29,32,30,29,100,99,95,0.00,40.00,4,2,9,0.00
2013-11-1,38,32,26,35,31,26,100,97,82,0.00,40.00,2,1,5,0.31
2013-11-2,51,38,32,38,29,-100,100,77,45,0.00,40.00,6,2,23,0.57
2013-11-3,40,27,17,32,23,15,99,86,67,0.00,40.00,5,3,16,0.05
2013-11-4,27,20,6,21,16,3,93,87,72,0.00,40.00,4,1,9,0.04
2013-11-5,25,20,14,19,16,11,92,87,73,0.00,40.00,4,1,10,0.01
2013-11-6,31,27,21,29,26,19,100,96,91,0.00,40.00,4,1,9,0.01
2013-11-7,37,32,29,35,32,29,100,99,92,0.00,40.00,2,0,6,0.21
2013-11-8,40,34,30,35,27,20,100,77,54,0.00,40.00,5,3,19,0.53
2013-11-9,45,33,23,26,24,21,96,72,43,0.00,40.00,3,1,8,0.08
2013-11-10,51,33,24,31,26,23,97,80,42,0.00,40.00,3,1,8,0.01
2013-11-11,51,32,23,30,24,21,98,77,34,0.00,40.00,4,1,9,0.01
2013-11-12,60,32,19,23,21,17,95,69,23,0.00,40.00,3,2,9,0.00
2013-11-13,44,32,28,33,28,23,100,85,49,0.00,40.00,3,1,6,0.03
2013-11-14,37,31,26,33,30,26,100,95,79,0.00,40.00,3,1,9,0.16
2013-11-15,27,26,24,26,25,20,100,95,85,0.00,40.00,4,2,11,0.02
2013-11-16,27,24,18,26,22,-100,96,92,72,0.00,40.00,7,4,20,0.01
2013-11-17,28,24,12,25,21,9,93,88,84,0.00,40.00,3,2,15,0.00
2013-11-18,46,30,13,34,26,10,99,86,45,0.00,40.00,3,1,7,0.30
2013-11-19,36,32,27,33,31,27,100,97,77,0.00,40.00,4,2,14,0.12
2013-11-20,34,31,21,34,30,15,100,97,82,0.00,40.00,5,2,13,0.40
2013-11-21,29,16,-2,15,9,-9,83,75,54,0.00,40.00,5,3,16,0.04
2013-11-22,34,5,-8,20,-1,-14,89,75,48,0.00,40.00,4,2,11,0.10
2013-11-23,44,27,15,19,15,9,83,64,30,0.00,40.00,4,3,12,0.13
2013-11-24,43,18,4,15,9,-1,84,71,27,0.00,40.00,3,1,6,0.12
2013-11-25,39,20,4,18,12,0,90,74,41,0.00,40.00,3,1,8,0.11
2013-11-26,48,16,3,21,9,-1,90,77,33,0.00,40.00,2,1,5,0.17
2013-11-27,48,20,9,20,12,6,91,77,28,0.00,40.00,3,2,6,0.10
2013-11-28,47,21,11,21,13,8,90,75,30,0.00,40.00,2,2,7,0.05
2013-11-29,43,20,7,23,13,3,91,79,43,0.00,40.00,3,2,9,0.01
2013-11-30,37,28,19,30,22,-100,99,81,63,0.00,40.00,4,1,10,0.00
2013-12-1,34,31,29,33,31,29,100,100,100,0.00,40.00,6,4,15,0.00
2013-12-2,36,34,24,34,30,21,100,85,72,0.00,40.00,7,5,23,0.41
2013-12-3,24,10,-2,22,3,-13,93,73,59,0.00,40.00,5,4,21,0.04
2013-12-4,15,-4,-19,-5,-15,-27,73,60,37,0.00,40.00,5,2,15,0.00
2013-12-5,8,-11,-20,-5,-19,-28,71,65,51,0.00,40.00,4,1,9,0.00
2013-12-6,9,-9,-22,-3,-17,-30,78,66,45,0.00,40.00,3,1,8,0.00
2013-12-7,13,6,-3,8,0,-100,86,77,71,0.00,40.00,4,2,16,0.00
2013-12-8,4,-4,-19,-5,-11,-28,79,72,62,0.00,40.00,3,1,8,0.00
2013-12-9,2,-9,-24,-5,-16,-32,79,70,61,0.00,40.00,3,1,9,0.00
2013-12-10,13,6,0,6,1,-5,83,79,71,0.00,40.00,2,0,4,0.00
2013-12-11,24,10,1,14,5,-4,88,80,64,0.00,40.00,3,0,8,0.01
2013-12-12,31,7,-4,20,2,-9,90,81,59,0.00,40.00,2,1,4,0.14
2013-12-13,22,11,-4,16,6,-9,89,82,76,0.00,40.00,2,1,6,0.11
2013-12-14,23,19,14,21,16,-100,97,92,89,0.00,40.00,2,1,6,0.00
2013-12-15,31,20,4,26,18,0,95,89,80,0.00,40.00,2,1,7,0.07
2013-12-16,34,12,-3,20,7,-8,90,80,57,0.00,40.00,3,1,7,0.16
2013-12-17,39,13,-2,23,8,-7,92,81,39,0.00,40.00,2,1,7,0.32
2013-12-18,41,22,5,21,14,1,90,75,39,0.00,40.00,5,1,11,0.09
2013-12-19,29,20,-4,22,12,-9,93,75,46,0.00,40.00,4,2,15,0.06
2013-12-20,14,6,-9,10,1,-15,88,82,75,0.00,40.00,3,1,7,0.00
2013-12-21,22,16,12,18,12,-100,93,88,83,0.00,40.00,2,0,5,0.00
2013-12-22,20,18,17,18,16,15,94,92,89,0.00,40.00,2,1,5,0.00
2013-12-23,32,25,20,31,25,19,100,96,94,0.00,40.00,6,1,18,0.00
2013-12-24,32,21,10,32,18,7,100,86,64,0.00,40.00,7,2,20,0.05
2013-12-25,29,15,1,16,10,-3,91,80,59,0.00,40.00,3,1,9,0.01
2013-12-26,37,15,4,15,9,0,88,77,39,0.00,40.00,3,1,7,0.13
2013-12-27,39,12,-1,19,6,-6,86,77,35,0.00,40.00,2,1,5,0.09
2013-12-28,31,18,3,20,12,-100,88,79,60,0.00,40.00,3,1,6,0.01
2013-12-29,19,12,-1,17,9,-6,92,88,79,0.00,40.00,2,1,7,0.01
2013-12-30,29,22,17,21,16,14,93,81,57,0.00,40.00,3,1,8,0.01
2013-12-31,25,23,22,22,21,20,95,92,86,0.00,40.00,4,1,8,0.01
2014-1-1,23,21,17,23,20,15,98,94,90,0.00,40.00,2,1,5,0.00
2014-1-2,30,23,18,25,21,16,97,91,82,0.00,40.00,1,0,4,0.00